Measurements were made at the meteorological tower in Jülich (50.90 N / 6.40 E) at an altitude of 20 m,
Responsible PI: Dr. Marc von Hobe; Forschungszentrum Jülich GmbH; IEK-7; email: m.von.hobe@fz-juelich.de,
NaN or negative numbers are fill values (i.e. no valid measurements were made at that time),
Uncertainties are given as the 1-sigma standard deviation over each 10 minute intervals. In each interval ~600 individual measurements are carried out so that the standard error of the mean is approximately sigma/sqrt(600).,
time_utc,CO2_ppm,stdev_CO2_ppm,H2O_ppm,stdev_H2O_ppm
"2014-04-01 00:05:00 000",432.322,1.10198,7294.03,62.2570
"2014-04-01 00:15:00 000",432.896,1.02081,7285.26,45.9891
"2014-04-01 00:25:00 000",429.919,2.69633,7189.01,95.7970
"2014-04-01 00:35:00 000",435.547,3.71806,7342.22,106.568
"2014-04-01 00:45:00 000",430.249,4.83453,7175.51,155.127
"2014-04-01 00:55:00 000",426.149,3.47570,7029.03,85.8313
"2014-04-01 01:05:00 000",436.012,7.08049,7292.99,180.560
"2014-04-01 01:15:00 000",440.811,1.92092,7423.69,55.3644
"2014-04-01 01:25:00 000",442.496,2.72478,7471.49,64.6217
"2014-04-01 01:35:00 000",429.137,4.08718,7216.92,108.931
"2014-04-01 01:45:00 000",428.117,0.976862,7267.93,38.3093
"2014-04-01 01:55:00 000",430.319,2.04667,7368.86,52.0265
"2014-04-01 02:05:00 000",429.842,1.70628,7381.43,42.5707
"2014-04-01 02:15:00 000",429.267,0.980164,7383.31,37.1825
"2014-04-01 02:25:00 000",432.124,2.79209,7503.06,84.4815
"2014-04-01 02:35:00 000",437.221,1.91959,7552.33,40.2518
"2014-04-01 02:45:00 000",437.852,2.11207,7615.84,66.6854
"2014-04-01 02:55:00 000",427.757,3.23602,7659.99,93.2046
"2014-04-01 03:05:00 000",424.197,1.33418,7724.83,72.3500
"2014-04-01 03:15:00 000",422.957,0.961269,7796.83,67.9141
"2014-04-01 03:25:00 000",422.519,0.828798,7884.44,60.1051
"2014-04-01 03:35:00 000",422.222,1.07860,7913.20,43.2919
"2014-04-01 03:45:00 000",424.018,1.10159,7932.39,46.1786
"2014-04-01 03:55:00 000",423.013,0.834179,8020.59,53.0441
"2014-04-01 04:05:00 000",421.362,1.26244,8080.79,50.6163
"2014-04-01 04:15:00 000",422.123,0.765374,8066.41,61.5072
"2014-04-01 04:25:00 000",421.326,0.759658,8133.52,45.7747
"2014-04-01 04:35:00 000",420.294,0.906688,8105.61,48.4372
"2014-04-01 04:45:00 000",419.949,0.831775,8194.30,74.2158
"2014-04-01 04:55:00 000",420.372,0.699820,8136.25,44.5240
"2014-04-01 05:05:00 000",420.852,1.01331,8120.35,43.7186
"2014-04-01 05:15:00 000",422.634,0.828999,8118.31,48.9059
"2014-04-01 05:25:00 000",423.677,0.787525,8276.08,81.9197
"2014-04-01 05:35:00 000",424.319,0.806921,8287.32,42.7252
"2014-04-01 05:45:00 000",424.387,1.27064,8224.87,42.4089
"2014-04-01 05:55:00 000",424.128,0.754629,8255.44,55.1250
"2014-04-01 06:05:00 000",425.141,0.732535,8319.27,37.1439
"2014-04-01 06:15:00 000",424.198,1.05275,8334.38,41.5199
"2014-04-01 06:25:00 000",433.758,8.27786,8478.35,77.2426
"2014-04-01 06:35:00 000",440.789,6.13887,8548.08,84.4036
"2014-04-01 06:45:00 000",444.798,6.35997,8585.08,71.9967
"2014-04-01 06:55:00 000",448.763,2.14421,8632.46,66.5095
"2014-04-01 07:05:00 000",447.418,3.17321,8576.95,47.8651
"2014-04-01 07:15:00 000",447.613,1.97321,8645.87,43.4157
"2014-04-01 07:25:00 000",440.264,3.31089,8598.13,75.6260
"2014-04-01 07:35:00 000",440.476,3.59084,8669.84,76.6315
"2014-04-01 07:45:00 000",438.329,1.56833,8662.04,59.0766
"2014-04-01 07:55:00 000",434.329,3.48477,8797.95,55.8493
"2014-04-01 08:05:00 000",428.783,1.09929,8937.13,114.131
"2014-04-01 08:15:00 000",425.543,3.17626,9102.33,64.9428
"2014-04-01 08:25:00 000",416.100,2.33377,8945.78,65.2158
"2014-04-01 08:35:00 000",411.060,1.21615,8971.94,65.5295
"2014-04-01 08:45:00 000",408.429,1.47574,9062.94,71.9445
"2014-04-01 08:55:00 000",406.868,1.05882,9207.14,126.698
"2014-04-01 09:05:00 000",406.402,0.876252,9249.99,95.9071
"2014-04-01 09:15:00 000",408.615,1.34432,9485.96,112.750
"2014-04-01 09:25:00 000",409.491,2.20681,9540.74,211.340
"2014-04-01 09:35:00 000",407.804,2.63890,9365.22,152.525
"2014-04-01 09:45:00 000",410.506,1.59454,9691.32,119.380
"2014-04-01 09:55:00 000",405.696,2.11555,9707.33,117.411
"2014-04-01 10:05:00 000",400.817,1.57370,9661.01,96.9716
"2014-04-01 10:15:00 000",400.489,1.19351,9536.51,217.077
"2014-04-01 10:25:00 000",399.738,2.35266,9417.51,138.431
"2014-04-01 10:35:00 000",401.248,1.11129,9407.47,94.9807
"2014-04-01 10:45:00 000",400.474,1.54542,9349.22,199.151
"2014-04-01 10:55:00 000",400.914,2.12365,9386.28,95.2821
"2014-04-01 11:05:00 000",401.012,1.68323,9362.10,93.2693
"2014-04-01 11:15:00 000",401.611,1.62782,9545.81,125.085
"2014-04-01 11:25:00 000",398.699,1.52161,9588.87,104.197
"2014-04-01 11:35:00 000",401.754,1.69371,9445.27,190.041
"2014-04-01 11:45:00 000",403.358,1.09246,9345.38,76.2335
"2014-04-01 11:55:00 000",399.743,3.08485,9384.82,142.221
"2014-04-01 12:05:00 000",393.961,2.63669,9276.05,212.102
"2014-04-01 12:15:00 000",393.070,1.48309,9392.87,179.546
"2014-04-01 12:25:00 000",396.570,2.89065,9055.07,182.551
"2014-04-01 12:35:00 000",401.362,2.53169,8987.78,132.370
"2014-04-01 12:45:00 000",394.034,2.07478,9147.59,78.9378
"2014-04-01 12:55:00 000",392.822,0.839091,9198.89,102.244
"2014-04-01 13:05:00 000",391.886,2.26146,9225.78,133.664
"2014-04-01 13:15:00 000",392.852,1.60166,9252.47,67.8694
"2014-04-01 13:25:00 000",391.802,1.86898,9158.40,59.8691
"2014-04-01 13:35:00 000",391.038,1.07966,9283.01,69.2447
"2014-04-01 13:45:00 000",391.053,1.21910,9243.47,59.7708
"2014-04-01 13:55:00 000",390.900,1.00406,9326.20,76.2795
"2014-04-01 14:05:00 000",390.014,0.928198,9315.38,148.960
"2014-04-01 14:15:00 000",387.246,1.27163,9437.14,98.1052
"2014-04-01 14:25:00 000",387.374,1.43306,9450.23,173.852
"2014-04-01 14:35:00 000",387.854,1.72080,9031.03,88.6080
"2014-04-01 14:45:00 000",390.435,0.869296,9121.37,64.2700
"2014-04-01 14:55:00 000",386.381,0.936721,9204.75,80.1197
"2014-04-01 15:05:00 000",388.787,0.825740,9362.48,137.135
"2014-04-01 15:15:00 000",388.041,0.929921,9401.42,79.9984
"2014-04-01 15:25:00 000",389.409,0.726476,9339.07,77.8460
"2014-04-01 15:35:00 000",389.615,1.76164,9540.54,113.411
"2014-04-01 15:45:00 000",392.345,0.894943,9374.46,72.5906
"2014-04-01 15:55:00 000",389.972,1.39102,9389.15,111.270
"2014-04-01 16:05:00 000",391.983,0.817202,9452.15,90.3988
"2014-04-01 16:15:00 000",388.372,1.15683,9460.40,111.222
"2014-04-01 16:25:00 000",388.986,1.77463,9287.19,153.164
"2014-04-01 16:35:00 000",389.231,1.06735,9007.80,137.410
"2014-04-01 16:45:00 000",387.806,0.833791,9221.77,208.599
"2014-04-01 16:55:00 000",389.837,1.38391,9310.91,143.443
"2014-04-01 17:05:00 000",389.960,1.37153,9218.88,214.562
"2014-04-01 17:15:00 000",389.879,1.95351,8931.43,78.6098
"2014-04-01 17:25:00 000",390.184,0.721840,8826.20,46.4812
"2014-04-01 17:35:00 000",391.295,0.990079,8883.68,66.1171
"2014-04-01 17:45:00 000",390.146,2.06319,8829.12,118.079
"2014-04-01 17:55:00 000",395.264,0.769951,8931.69,84.9229
"2014-04-01 18:05:00 000",393.746,1.54987,9045.60,86.0535
"2014-04-01 18:15:00 000",393.982,1.04286,9145.88,45.6715
"2014-04-01 18:25:00 000",392.271,1.67009,9129.76,67.4888
"2014-04-01 18:35:00 000",398.177,1.52623,9329.90,107.864
"2014-04-01 18:45:00 000",401.672,1.52834,9422.56,72.2058
"2014-04-01 18:55:00 000",400.747,1.74516,9354.99,77.1798
"2014-04-01 19:05:00 000",404.270,0.942846,9401.08,54.1247
"2014-04-01 19:15:00 000",407.458,2.18305,9484.59,135.449
"2014-04-01 19:25:00 000",405.426,0.957369,9377.00,71.3693
"2014-04-01 19:35:00 000",405.069,1.29213,9254.30,84.5947
"2014-04-01 19:45:00 000",413.374,3.18409,9338.80,157.194
"2014-04-01 19:55:00 000",414.710,4.82892,9690.03,84.1629
"2014-04-01 20:05:00 000",421.428,3.38997,9796.50,53.7344
"2014-04-01 20:15:00 000",423.103,1.27082,9750.31,96.6325
"2014-04-01 20:25:00 000",420.188,4.34908,9573.46,92.8388
"2014-04-01 20:35:00 000",416.149,1.29991,9291.25,85.9786
"2014-04-01 20:45:00 000",414.900,1.74127,9373.02,71.0775
"2014-04-01 20:55:00 000",416.641,1.33436,9499.90,93.6376
"2014-04-01 21:05:00 000",419.931,2.94617,9495.73,72.7497
"2014-04-01 21:15:00 000",423.244,1.56687,9471.90,56.2792
"2014-04-01 21:25:00 000",427.212,1.70051,9610.86,97.1650
"2014-04-01 21:35:00 000",426.412,0.967451,9553.59,82.8377
"2014-04-01 21:45:00 000",422.973,2.61712,9412.95,146.352
"2014-04-01 21:55:00 000",423.575,2.36046,9459.33,68.1576
"2014-04-01 22:05:00 000",421.088,1.26652,9425.43,84.8309
"2014-04-01 22:15:00 000",424.128,2.44230,9593.71,67.1185
"2014-04-01 22:25:00 000",430.847,3.04948,9530.67,57.5358
"2014-04-01 22:35:00 000",434.040,2.40117,9434.25,58.9912
"2014-04-01 22:45:00 000",437.105,1.47195,9463.39,157.262
"2014-04-01 22:55:00 000",440.145,2.09371,9481.72,243.975
"2014-04-01 23:05:00 000",444.339,1.56231,9624.24,101.160
"2014-04-01 23:15:00 000",448.481,3.67858,9229.14,55.3771
"2014-04-01 23:25:00 000",444.361,5.94338,9187.81,55.2316
"2014-04-01 23:35:00 000",438.843,5.41336,9400.54,54.4035
"2014-04-01 23:45:00 000",450.388,1.04567,9140.43,120.016
"2014-04-01 23:55:00 000",446.330,1.41094,9148.09,96.9437
"2014-04-02 00:05:00 000",444.761,1.36623,9190.51,131.474
"2014-04-02 00:15:00 000",443.876,2.45234,9179.88,56.8462
"2014-04-02 00:25:00 000",443.720,0.992478,8803.38,147.520
"2014-04-02 00:35:00 000",448.108,1.72581,8890.74,108.968
"2014-04-02 00:45:00 000",444.756,1.90694,8981.04,51.5503
"2014-04-02 00:55:00 000",441.515,1.25448,8886.36,134.596
"2014-04-02 01:05:00 000",445.616,1.19466,8620.65,64.1466
"2014-04-02 01:15:00 000",447.174,0.888354,8484.99,121.268
"2014-04-02 01:25:00 000",444.930,2.71742,8756.32,61.6426
"2014-04-02 01:35:00 000",441.072,1.95042,8720.35,71.3364
"2014-04-02 01:45:00 000",440.767,2.27911,8624.13,44.4002
"2014-04-02 01:55:00 000",441.617,1.97029,8573.55,154.962
"2014-04-02 02:05:00 000",452.031,7.64668,8552.40,264.280
"2014-04-02 02:15:00 000",455.187,5.65674,8640.33,93.9728
"2014-04-02 02:25:00 000",445.061,2.32266,8610.10,62.0142
"2014-04-02 02:35:00 000",450.999,4.21886,8722.92,148.748
"2014-04-02 02:45:00 000",457.356,1.03119,8855.23,106.834
"2014-04-02 02:55:00 000",458.809,1.44350,8600.76,51.1953
"2014-04-02 03:05:00 000",461.727,2.69844,8721.57,50.6264
"2014-04-02 03:15:00 000",470.376,1.16560,8708.48,61.8104
"2014-04-02 03:25:00 000",458.852,4.86484,8670.29,60.8790
"2014-04-02 03:35:00 000",458.890,3.39043,8714.02,66.6200
"2014-04-02 03:45:00 000",457.777,2.70934,8787.89,75.2773
"2014-04-02 03:55:00 000",458.980,4.44575,8703.02,73.3777
"2014-04-02 04:05:00 000",469.067,6.29672,8408.44,65.1379
"2014-04-02 04:15:00 000",482.899,6.80386,8297.84,150.385
"2014-04-02 04:25:00 000",495.818,3.79306,8306.17,118.695
"2014-04-02 04:35:00 000",497.517,2.11160,8220.63,56.8798
"2014-04-02 04:45:00 000",492.779,2.97795,8362.20,46.2256
"2014-04-02 04:55:00 000",482.789,2.99285,8433.12,49.9526
"2014-04-02 05:05:00 000",486.576,3.45479,8504.33,65.1718
"2014-04-02 05:15:00 000",492.468,1.47541,8527.54,61.2924
"2014-04-02 05:25:00 000",488.518,3.42928,8177.13,93.2180
"2014-04-02 05:35:00 000",503.627,6.49944,7845.59,70.9739
"2014-04-02 05:45:00 000",517.673,5.51467,8258.66,215.736
"2014-04-02 05:55:00 000",514.501,4.40171,8946.64,283.159
"2014-04-02 06:05:00 000",503.944,4.61375,9574.00,87.0468
"2014-04-02 06:15:00 000",492.383,3.89162,9895.54,111.170
"2014-04-02 06:25:00 000",491.818,3.81602,10319.0,152.092
"2014-04-02 06:35:00 000",460.765,10.4127,10886.0,151.472
"2014-04-02 06:45:00 000",444.020,2.05127,11599.0,313.252
"2014-04-02 06:55:00 000",439.589,2.19008,12574.0,300.641
"2014-04-02 07:05:00 000",432.289,2.97319,13405.8,259.422
"2014-04-02 07:15:00 000",427.899,0.878453,14148.7,213.432
"2014-04-02 07:25:00 000",429.955,1.48352,13059.2,2219.27
"2014-04-02 07:35:00 000",431.872,0.915394,9568.50,75.1466
"2014-04-02 07:45:00 000",432.140,1.05004,9612.34,69.4806
"2014-04-02 07:55:00 000",429.741,1.07378,9444.42,76.7524
"2014-04-02 08:05:00 000",425.429,2.98695,9500.04,84.9124
"2014-04-02 08:15:00 000",415.688,2.90148,9398.70,67.8900
"2014-04-02 08:25:00 000",407.343,2.21051,9223.75,96.2566
"2014-04-02 08:35:00 000",404.767,0.794180,9205.41,54.6181
"2014-04-02 08:45:00 000",405.640,0.846747,9389.08,77.7761
"2014-04-02 08:55:00 000",403.125,1.24755,9409.76,93.7485
"2014-04-02 09:05:00 000",399.483,1.20732,9532.10,85.4269
"2014-04-02 09:15:00 000",397.015,1.18849,9678.23,100.824
"2014-04-02 09:25:00 000",396.747,1.20439,9734.29,99.2155
"2014-04-02 09:35:00 000",396.527,1.19393,9970.92,78.6468
"2014-04-02 09:45:00 000",395.588,2.03441,9812.73,130.388
"2014-04-02 09:55:00 000",395.921,1.79040,9577.57,74.5811
"2014-04-02 10:05:00 000",398.363,1.08941,9662.07,55.9130
"2014-04-02 10:15:00 000",398.533,1.75502,9667.29,114.527
"2014-04-02 10:25:00 000",395.222,0.821380,9302.46,159.457
"2014-04-02 10:35:00 000",395.958,1.25616,9207.74,94.0521
"2014-04-02 10:45:00 000",398.489,1.08339,9042.21,97.6058
"2014-04-02 10:55:00 000",396.830,0.743975,8963.10,137.037
"2014-04-02 11:05:00 000",397.692,1.19927,9186.92,103.323
"2014-04-02 11:15:00 000",396.318,2.04687,9261.67,86.3020
"2014-04-02 11:25:00 000",393.608,1.92372,9202.89,240.723
"2014-04-02 11:35:00 000",393.193,1.89648,9213.81,162.390
"2014-04-02 11:45:00 000",397.829,2.72372,9366.09,188.520
"2014-04-02 11:55:00 000",393.249,1.62869,9331.55,120.147
"2014-04-02 12:05:00 000",392.782,0.622825,9369.31,82.8021
"2014-04-02 12:15:00 000",391.254,0.769323,9370.99,66.6964
"2014-04-02 12:25:00 000",392.508,1.02042,9432.23,111.309
"2014-04-02 12:35:00 000",391.624,1.45957,9477.96,93.7281
"2014-04-02 12:45:00 000",397.929,0.453901,9885.68,102.926
"2014-04-02 12:55:00 000",398.072,0.386568,10011.0,109.974
"2014-04-02 13:05:00 000",398.189,0.413107,10243.9,82.3785
"2014-04-02 13:15:00 000",399.277,0.396278,10441.9,107.868
"2014-04-02 13:25:00 000",399.531,0.425877,10567.6,99.2909
"2014-04-02 13:35:00 000",399.270,0.504574,10630.5,126.442
"2014-04-02 13:45:00 000",398.981,0.431856,10405.5,164.528
"2014-04-02 13:55:00 000",398.703,0.382275,10230.1,102.996
"2014-04-02 14:05:00 000",398.153,0.435235,10365.2,135.141
"2014-04-02 14:15:00 000",399.360,1.44853,10483.7,127.225
"2014-04-02 14:25:00 000",402.685,0.606481,10392.4,107.477
"2014-04-02 14:35:00 000",402.423,2.16415,10378.8,139.059
"2014-04-02 14:45:00 000",406.038,0.479761,10155.7,92.0887
"2014-04-02 14:55:00 000",403.361,2.05789,9720.62,262.695
"2014-04-02 15:05:00 000",399.085,0.484965,9516.03,46.2817
"2014-04-02 15:15:00 000",398.400,0.496361,9275.99,386.009
"2014-04-02 15:25:00 000",397.641,0.342162,8719.87,136.182
"2014-04-02 15:35:00 000",397.280,0.357536,8496.64,136.892
"2014-04-02 15:45:00 000",397.044,0.376787,8391.39,105.027
"2014-04-02 15:55:00 000",396.762,0.576910,8197.55,155.054
"2014-04-02 16:05:00 000",395.975,0.666574,8943.70,410.678
"2014-04-02 16:15:00 000",394.977,0.435646,9866.42,175.029
"2014-04-02 16:25:00 000",395.100,0.381239,10034.1,62.3512
"2014-04-02 16:35:00 000",394.966,0.328876,10077.7,103.627
"2014-04-02 16:45:00 000",395.557,1.06763,10036.8,223.485
"2014-04-02 16:55:00 000",395.791,0.780783,9961.78,92.5341
"2014-04-02 17:05:00 000",395.655,0.735370,10106.0,78.3600
"2014-04-02 17:15:00 000",395.955,0.565194,10156.6,130.265
"2014-04-02 17:25:00 000",396.698,0.498390,9807.83,83.7104
"2014-04-02 17:35:00 000",397.485,0.606343,9904.11,51.0993
"2014-04-02 17:45:00 000",397.045,0.496321,10137.5,109.182
"2014-04-02 17:55:00 000",397.616,0.516542,10255.6,34.0690
"2014-04-02 18:05:00 000",398.331,0.552014,10278.8,40.5718
"2014-04-02 18:15:00 000",400.186,0.747929,10354.0,33.8868
"2014-04-02 18:25:00 000",402.603,0.849598,10399.8,90.3983
"2014-04-02 18:35:00 000",404.559,1.02547,10529.6,132.116
"2014-04-02 18:45:00 000",405.209,0.546468,10599.3,62.7325
"2014-04-02 18:55:00 000",406.442,0.723903,10411.6,58.0399
"2014-04-02 19:05:00 000",406.508,1.09067,10248.8,95.3369
"2014-04-02 19:15:00 000",405.451,0.803039,10115.2,29.9275
"2014-04-02 19:25:00 000",407.802,2.02057,10167.5,48.9061
"2014-04-02 19:35:00 000",410.365,1.45454,10192.4,41.7498
"2014-04-02 19:45:00 000",412.035,1.72710,10226.5,48.8593
"2014-04-02 19:55:00 000",409.488,1.30215,10172.4,13.7514
"2014-04-02 20:05:00 000",406.754,1.40907,10136.3,34.0085
"2014-04-02 20:15:00 000",405.312,1.02860,10094.5,18.5500
"2014-04-02 20:25:00 000",404.423,1.67179,10088.9,35.1430
"2014-04-02 20:35:00 000",415.792,3.98707,10280.7,68.1565
"2014-04-02 20:45:00 000",418.800,1.47246,10344.3,29.7875
"2014-04-02 20:55:00 000",414.875,2.12905,10290.6,44.9951
"2014-04-02 21:05:00 000",416.740,3.32219,10322.7,64.6134
"2014-04-02 21:15:00 000",420.061,2.57605,10407.0,32.2039
"2014-04-02 21:25:00 000",427.501,7.67235,10513.9,91.7219
"2014-04-02 21:35:00 000",425.595,5.19424,10456.5,92.9519
"2014-04-02 21:45:00 000",432.724,3.55053,10531.6,48.7372
"2014-04-02 21:55:00 000",437.356,2.03332,10563.6,24.2272
"2014-04-02 22:05:00 000",430.859,4.87809,10479.4,67.8033
"2014-04-02 22:15:00 000",433.699,2.17983,10489.2,42.9928
"2014-04-02 22:25:00 000",441.236,1.80891,10603.4,32.4412
"2014-04-02 22:35:00 000",441.180,0.883561,10570.7,27.4981
"2014-04-02 22:45:00 000",438.075,2.70974,10523.8,36.9998
"2014-04-02 22:55:00 000",440.896,2.86486,10558.4,40.8393
"2014-04-02 23:05:00 000",443.172,2.05846,10570.0,18.9735
"2014-04-02 23:15:00 000",440.368,2.69067,10525.3,46.2512
"2014-04-02 23:25:00 000",442.963,3.10193,10547.2,45.5843
"2014-04-02 23:35:00 000",435.978,1.86269,10446.2,22.0081
"2014-04-02 23:45:00 000",437.075,3.22071,10480.3,23.5870
"2014-04-02 23:55:00 000",447.438,5.83566,10594.7,84.9572
"2014-04-03 00:05:00 000",439.062,1.85833,10475.9,24.2194
"2014-04-03 00:15:00 000",444.539,1.63211,10521.0,20.4901
"2014-04-03 00:25:00 000",446.666,1.75504,10512.8,26.9122
"2014-04-03 00:35:00 000",444.097,4.21857,10491.5,32.1398
"2014-04-03 00:45:00 000",437.101,0.922253,10424.6,46.9500
"2014-04-03 00:55:00 000",435.277,2.35854,10438.6,41.4401
"2014-04-03 01:05:00 000",436.249,1.72681,10455.3,15.5215
"2014-04-03 01:15:00 000",434.414,0.806655,10447.7,18.4760
"2014-04-03 01:25:00 000",436.210,1.57932,10427.6,13.7942
"2014-04-03 01:35:00 000",443.072,6.29354,10481.1,46.9818
"2014-04-03 01:45:00 000",456.310,3.62688,10712.9,74.1928
"2014-04-03 01:55:00 000",464.755,3.35899,10732.1,34.2835
"2014-04-03 02:05:00 000",464.327,4.75701,10644.6,32.3530
"2014-04-03 02:15:00 000",465.213,2.50977,10688.4,48.0769
"2014-04-03 02:25:00 000",464.085,3.12015,10626.8,35.5257
"2014-04-03 02:35:00 000",470.731,5.85043,10672.5,149.189
"2014-04-03 02:45:00 000",481.996,3.73210,10895.0,107.083
"2014-04-03 02:55:00 000",488.440,2.26935,10676.0,71.1596
"2014-04-03 03:05:00 000",484.511,3.43990,10666.7,43.2478
"2014-04-03 03:15:00 000",482.497,9.58503,10792.3,109.166
"2014-04-03 03:25:00 000",477.489,4.00153,10915.7,146.179
"2014-04-03 03:35:00 000",470.819,5.62116,10752.9,32.8987
"2014-04-03 03:45:00 000",459.084,4.09627,10685.2,53.7158
"2014-04-03 03:55:00 000",450.779,2.20809,10531.2,46.8582
"2014-04-03 04:05:00 000",445.380,2.54226,10443.0,27.4356
"2014-04-03 04:15:00 000",443.684,1.14352,10407.3,21.6213
"2014-04-03 04:25:00 000",440.523,2.96429,10367.5,50.3199
"2014-04-03 04:35:00 000",438.336,3.16802,10263.8,43.4093
"2014-04-03 04:45:00 000",437.315,4.58211,10148.4,35.4647
"2014-04-03 04:55:00 000",441.010,2.81118,10208.6,36.7518
"2014-04-03 05:05:00 000",439.096,2.12361,10154.3,34.3286
"2014-04-03 05:15:00 000",441.464,1.51358,10109.4,21.1766
"2014-04-03 05:25:00 000",445.019,2.93370,10117.6,60.0015
"2014-04-03 05:35:00 000",443.106,3.87532,10092.7,61.8199
"2014-04-03 05:45:00 000",458.381,10.3277,10282.1,137.812
"2014-04-03 05:55:00 000",454.290,1.86221,10111.2,45.0273
"2014-04-03 06:05:00 000",449.574,4.13164,10027.8,75.7460
"2014-04-03 06:15:00 000",446.069,6.35202,9970.50,55.9573
"2014-04-03 06:25:00 000",451.289,5.26342,10040.2,53.0788
"2014-04-03 06:35:00 000",458.445,3.10580,10146.0,94.2497
"2014-04-03 06:45:00 000",459.862,1.79600,10192.6,66.5272
"2014-04-03 06:55:00 000",457.160,3.58030,10180.9,81.1524
"2014-04-03 07:05:00 000",447.698,2.97905,10166.3,131.542
"2014-04-03 07:15:00 000",444.324,1.56922,10067.4,155.255
"2014-04-03 07:25:00 000",439.429,5.16214,9802.73,427.949
"2014-04-03 07:35:00 000",434.810,1.71182,9860.59,149.885
"2014-04-03 07:45:00 000",435.922,1.34132,10287.8,162.837
"2014-04-03 07:55:00 000",427.224,2.75281,10026.0,267.245
"2014-04-03 08:05:00 000",424.488,3.01725,10250.4,263.257
"2014-04-03 08:15:00 000",420.385,0.779602,10056.1,127.218
"2014-04-03 08:25:00 000",418.572,1.70003,10072.2,104.230
"2014-04-03 08:35:00 000",415.197,0.974324,10212.0,125.884
"2014-04-03 08:45:00 000",412.039,1.34656,10296.9,106.507
"2014-04-03 08:55:00 000",408.750,1.04155,10109.7,190.073
"2014-04-03 09:05:00 000",406.297,0.669707,9813.69,133.089
"2014-04-03 09:15:00 000",407.401,1.42410,10037.7,238.518
"2014-04-03 09:25:00 000",406.493,0.421977,10172.8,206.319
"2014-04-03 09:35:00 000",405.821,0.528740,10160.8,158.015
"2014-04-03 09:45:00 000",404.860,0.445167,9885.38,147.038
"2014-04-03 09:55:00 000",404.479,0.571930,9954.28,224.919
"2014-04-03 10:05:00 000",403.102,0.560419,9699.29,205.756
"2014-04-03 10:15:00 000",402.283,0.570150,9747.68,109.961
"2014-04-03 10:25:00 000",401.974,0.585671,10140.3,235.302
"2014-04-03 10:35:00 000",400.710,0.802707,10373.9,63.5771
"2014-04-03 10:45:00 000",399.385,0.608130,10526.5,147.790
"2014-04-03 10:55:00 000",399.016,3.41442,10400.1,93.5440
"2014-04-03 11:05:00 000",401.606,2.10399,10181.8,113.778
"2014-04-03 11:15:00 000",401.332,1.54690,10013.9,228.007
"2014-04-03 11:25:00 000",399.097,0.667921,9808.74,172.674
"2014-04-03 11:35:00 000",398.914,0.374421,9735.59,81.6337
"2014-04-03 11:45:00 000",398.611,0.542316,9668.48,148.900
"2014-04-03 11:55:00 000",398.468,0.566012,9578.28,111.586
"2014-04-03 12:05:00 000",398.444,0.392758,9771.22,116.073
"2014-04-03 12:15:00 000",398.903,0.316136,9818.07,89.1914
"2014-04-03 12:25:00 000",399.150,0.352433,9865.16,99.1947
"2014-04-03 12:35:00 000",399.076,0.565532,10014.7,81.9191
"2014-04-03 12:45:00 000",400.680,0.944350,10267.7,161.932
"2014-04-03 12:55:00 000",410.453,3.11286,10451.9,215.736
"2014-04-03 13:05:00 000",407.331,4.75595,10360.5,230.671
"2014-04-03 13:15:00 000",400.126,0.409599,9962.60,96.0232
"2014-04-03 13:25:00 000",400.599,0.460469,9996.25,72.5576
"2014-04-03 13:35:00 000",400.556,0.354686,10023.9,58.3095
"2014-04-03 13:45:00 000",400.635,0.358859,10070.3,47.7172
"2014-04-03 13:55:00 000",400.951,0.377153,10226.6,77.4165
"2014-04-03 14:05:00 000",400.642,0.431825,10285.3,101.390
"2014-04-03 14:15:00 000",400.650,0.409146,10359.6,124.952
"2014-04-03 14:25:00 000",400.929,1.04442,10557.0,155.847
"2014-04-03 14:35:00 000",401.237,0.578791,10511.1,142.727
"2014-04-03 14:45:00 000",401.618,0.840021,10557.4,102.830
"2014-04-03 14:55:00 000",399.216,0.479488,10694.1,173.975
"2014-04-03 15:05:00 000",397.677,0.748016,10660.0,116.718
"2014-04-03 15:15:00 000",398.681,0.650351,10548.6,92.6931
"2014-04-03 15:25:00 000",397.989,0.436234,10473.0,62.9869
"2014-04-03 15:35:00 000",397.408,0.350167,10565.8,85.0671
"2014-04-03 15:45:00 000",397.200,0.866573,10611.0,97.8412
"2014-04-03 15:55:00 000",396.891,0.364196,10626.1,42.1110
"2014-04-03 16:05:00 000",396.899,0.450346,10699.4,150.291
"2014-04-03 16:15:00 000",396.580,0.462859,10613.5,92.9145
"2014-04-03 16:25:00 000",396.683,0.456784,10701.4,90.3878
"2014-04-03 16:35:00 000",396.450,0.373970,10750.3,61.5764
"2014-04-03 16:45:00 000",396.974,0.535686,10605.8,49.0943
"2014-04-03 16:55:00 000",397.852,0.671821,10795.6,120.729
"2014-04-03 17:05:00 000",397.797,0.422471,10827.7,35.0384
"2014-04-03 17:15:00 000",398.219,0.677016,10915.7,82.7885
"2014-04-03 17:25:00 000",396.290,0.709381,11239.0,62.2270
"2014-04-03 17:35:00 000",397.390,1.14599,11435.9,102.986
"2014-04-03 17:45:00 000",398.835,1.38300,11606.9,90.3363
"2014-04-03 17:55:00 000",398.742,0.870096,11560.8,137.663
"2014-04-03 18:05:00 000",399.824,1.36212,11513.0,163.662
"2014-04-03 18:15:00 000",401.809,1.21411,11493.1,190.860
"2014-04-03 18:25:00 000",402.843,2.68360,11125.3,556.406
"2014-04-03 18:35:00 000",403.554,1.00988,10500.1,303.931
"2014-04-03 18:45:00 000",403.622,0.588564,10213.5,85.4015